User: anonymous   Login
Location: *
(2.5500°S, 65.9667°W)
Time: 16:54:30
(UTC+00:00)
Language:

Cosmos 2004 Rocket - Orbit

View from above orbital plane
View from above orbital plane
View from above satellite
View from above satellite

Ground track
Ground track

The orbit data is extracted from the following two-line orbital elements,

1 19827U 89017B   22222.70395752  .00000149  00000-0  14103-3 0  9996
2 19827  82.9501 211.3178 0033118  94.9010  78.6693 13.74152843677755
Epoch (UTC): 10 August 2022 16:53:41
Eccentricity: 0.0033118
inclination: 82.9501°
perigee height: 960 km
apogee height: 1009 km
right ascension of ascending node: 211.3178°
argument of perigee: 94.9010°
revolutions per day: 13.74152843
mean anomaly at epoch: 78.6693°
orbit number at epoch: 67775

The dashed part of the orbit path shows where the satellite is in the earth's shadow,  

DLR